Hauptseite
METAR-TAF:

METAR-TAF

Flughäfen :

Geilenkirchen, Deutschland

NATO-Flugplatz Geilenkirchen

Breite: 50-57-39N, Länge: 006-2-33E, Höhe: 90 m

Beobachtung

Neuester Wetterbericht von vor 6 Stunden und 10 Minuten, um 17:50 UTC
Wind 10 kt aus Nordost
Temperatur 12°C
Luftfeuchtigkeit 58%
Luftdruck 1029 hPa
Sichtweite 10 km oder mehr
keine Wolken unter 1500 m und keine Kumulonimbus oder Gewitterwolken

METAR: ETNG 241750Z 04010KT CAVOK 12/04 Q1029 NOSIG

Zeit: 01:00 (00:00 UTC)


TAF: fehlend

Wetterbeobachtungen und Prognosen von mehr als 4000 Flughäfen (METAR und TAF Bericht).

Die verfügbaren Stationen werden durch gelbe und rote Markierungen auf der Karte dargestellt.

Führen Sie die Maus auf sie, um den Namen der Station zu sehen.

Darauf klicken, um die Beobachtung von Wetterbeobachtungen und Prognosen zu sehen.

Um die Karte zu ändern : klicken Sie auf den grünen Tasten mit einem schwarzen Kreuz Zum Vergrößern, auf den grünen Button mit einem Gedankenstrich zu verkleinern, oder auf die grünen Pfeile für benachbarte Karten.


METAR-TAF: